map of AQP home
AQP - Airport
Location
City:  Arequipa, Arequipa, Perú
Name:Alfredo Rodríguez Ballón International Airport
ICAO:SPQU
IATA:AQP

Details
Type:Airport (Aerodrome, Airfield)
Use:Public/Civil, International (customs port of entry)
Latitude:16°20'26"S (-16.340610)
Longitude:71°34'15"W (-71.570791)
Elevation:8405 ft (2562 m)
Variation:5.35°W (WMM2015v2 magnetic declination)
-0.20° annual change
Runways:1
Longest:9777 × 148 ft (2980 × 45 m), paved

Time
Time Zone:UTC-5
Local Time:

Weather
METAR:SPQU 041400Z 21004KT 160V240 9999 FEW080 SCT120 18/13 Q1026 NOSIG RMK PP000
TAF:SPQU 041100Z 0412/0512 09004KT 9999 SCT050 BKN100 TX22/0418Z TN12/0510Z
BECMG 0414/0416 25010KT SCT100
BECMG 0422/0424 4500 RA BR OVC002

Related Locations
Nearby:
Farthest:DAD: 12434 mi / 20010 km
Da Nang [Intl], VN

Find:

   beyond  
but within

Other Information
Maps:
NOTAMs:
Links:
Sources:

  
  • flag of Perú
  • flag of Arequipa
  

Sectional Chart

Flight Planning
at skyvector.com

Satellite Image

Google Maps Satellite view

 

Copyright © 2004-2019 Karl L. Swartz. All rights reserved.
The Great Circle Mapper name and logo are trademarks of the Great Circle Mapper.
All other trademarks mentioned herein belong to their respective owners.
Please see credits for attibutions and further copyright information.

  Follow gcmap on Facebook Follow gcmap on Twitter GCmap on LinkedIn

hCard Microformat

Geo Microformat